Weather History for K40J - July, 2013

Change the Weather History Date:

Sunday, July 21, 2013

  Actual Average (KCTY) Record (KCTY)
Temperature  
Mean Temperature 78 °F 82 °F  
Max Temperature 89 °F 91 °F - ()
Min Temperature 69 °F 72 °F - ()
Degree Days  
Heating Degree Days 0 0  
Month to date heating degree days 0  
Since 1 June heating degree days 0  
Since 1 July heating degree days 0  
Cooling Degree Days 14 17  
Month to date cooling degree days 341  
Year to date cooling degree days 1267  
Since 1 June cooling degree days 788  
Growing Degree Days 28 (Base 50)    
Moisture  
Dew Point 72 °F    
Average Humidity 82    
Maximum Humidity 100    
Minimum Humidity 58    
Precipitation  
Precipitation 0.06 in 0.19 in - ()
Month to date precipitation 3.64  
Year to date precipitation 25.90  
Sea Level Pressure  
Sea Level Pressure 30.07 in    
Wind  
Wind Speed 4 mph (SSW)    
Max Wind Speed 16 mph    
Max Gust Speed 22 mph    
Visibility 10 miles    
Events Rain , Thunderstorm    
T = Trace of Precipitation, MM = Missing Value Source: NWS Daily Summary

Daily Weather History Graph

Daily Weather History Graph

Search for Another Location

Airport or City:

Trip Planner

Search our weather history database for the weather conditions in past years. The results will help you decide how hot, cold, wet, or windy it might be!

Date:

Astronomy

Jul. 21, 2013 Rise Set
Actual Time 6:46 AM EDT 8:34 PM EDT
Civil Twilight 6:20 AM EDT 9:00 PM EDT
Nautical Twilight 5:48 AM EDT 9:32 PM EDT
Astronomical Twilight 5:14 AM EDT 10:06 PM EDT
Moon 7:34 PM EDT (7/21) 5:29 AM EDT (7/21)
Length of Visible Light 14h 40m
Length of Day
13h 47m
Waxing Gibbous, 98% of the Moon is Illuminated
Jul 21
Waxing Gibbous
Jul 22
Full
Jul 29
Last Quarter
Aug 6
New
Aug 14
First Quarter

Hourly Weather History & Observations

Time (EDT) Temp. Heat Index Dew Point Humidity Pressure Visibility Wind Dir Wind Speed Gust Speed Precip Events Conditions
12:15 AM 71.6 °F - 69.8 °F 94% 30.10 in 10.0 mi Calm Calm - N/A   Scattered Clouds
12:35 AM 71.6 °F - 69.8 °F 94% 30.10 in 10.0 mi SE 3.5 mph - N/A   Scattered Clouds
12:53 AM 73.9 °F - 71.1 °F 91% 30.08 in - SE 3.5 mph - N/A   Unknown
12:55 AM 71.6 °F - 69.8 °F 94% 30.09 in 10.0 mi SE 3.5 mph - 0.01 in Rain Rain
1:15 AM 71.6 °F - 69.8 °F 94% 30.08 in 10.0 mi SE 3.5 mph - 0.01 in Rain Light Rain
1:35 AM 71.6 °F - 69.8 °F 94% 30.08 in 10.0 mi SE 4.6 mph - 0.01 in   Scattered Clouds
1:53 AM 73.0 °F - 71.1 °F 93% 30.07 in - SSE 3.5 mph - 0.02 in   Unknown
1:55 AM 71.6 °F - 69.8 °F 94% 30.08 in 10.0 mi Calm Calm - 0.01 in   Clear
2:15 AM 71.6 °F - 69.8 °F 94% 30.07 in 10.0 mi Calm Calm - N/A   Clear
2:35 AM 71.6 °F - 69.8 °F 94% 30.06 in 10.0 mi Calm Calm - N/A   Clear
2:53 AM 73.0 °F - 70.0 °F 90% 30.04 in - Calm Calm - N/A   Unknown
2:55 AM 71.6 °F - 69.8 °F 94% 30.06 in 7.0 mi Calm Calm - N/A   Clear
3:15 AM 69.8 °F - 69.8 °F 100% 30.05 in 4.0 mi Calm Calm - N/A   Clear
3:35 AM 69.8 °F - 69.8 °F 100% 30.05 in 7.0 mi Calm Calm - 0.01 in   Clear
3:53 AM 72.0 °F - 69.1 °F 91% 30.04 in - Calm Calm - N/A   Unknown
3:55 AM 69.8 °F - 69.8 °F 100% 30.05 in 5.0 mi Calm Calm - 0.01 in   Clear
4:15 AM 69.8 °F - 69.8 °F 100% 30.05 in 10.0 mi Calm Calm - N/A   Clear
4:35 AM 69.8 °F - 69.8 °F 100% 30.04 in 7.0 mi Calm Calm - N/A   Clear
4:53 AM 72.0 °F - 69.1 °F 91% 30.02 in - Calm Calm - N/A   Unknown
4:55 AM 69.8 °F - 69.8 °F 100% 30.04 in 7.0 mi Calm Calm - N/A   Clear
5:15 AM 69.8 °F - 69.8 °F 100% 30.03 in 10.0 mi Calm Calm - N/A   Clear
5:35 AM 71.6 °F - 69.8 °F 94% 30.04 in 10.0 mi South 4.6 mph - N/A   Clear
5:53 AM 73.9 °F - 71.1 °F 91% 30.03 in - South 4.6 mph - N/A   Unknown
5:55 AM 71.6 °F - 69.8 °F 94% 30.04 in 10.0 mi South 3.5 mph - N/A   Clear
6:15 AM 71.6 °F - 69.8 °F 94% 30.05 in 10.0 mi Calm Calm - N/A   Clear
6:35 AM 71.6 °F - 69.8 °F 94% 30.05 in 10.0 mi Calm Calm - N/A   Clear
6:53 AM 73.0 °F - 71.1 °F 93% 30.04 in - Calm Calm - N/A   Unknown
6:55 AM 71.6 °F - 69.8 °F 94% 30.06 in 10.0 mi Calm Calm - N/A   Clear
7:15 AM 71.6 °F - 69.8 °F 94% 30.06 in 10.0 mi Calm Calm - N/A   Clear
7:35 AM 71.6 °F - 69.8 °F 94% 30.07 in 10.0 mi Calm Calm - N/A   Clear
7:53 AM 75.0 °F - 72.0 °F 90% 30.06 in - Calm Calm - 0.01 in   Unknown
7:55 AM 71.6 °F - 71.6 °F 100% 30.08 in 10.0 mi Calm Calm - N/A   Clear
8:15 AM 73.4 °F - 71.6 °F 94% 30.08 in 10.0 mi Calm Calm - N/A   Clear
8:35 AM 73.4 °F - 71.6 °F 94% 30.09 in 10.0 mi Calm Calm - N/A   Scattered Clouds
8:53 AM 79.0 °F - 73.9 °F 84% 30.08 in - SE 3.5 mph - N/A   Unknown
8:55 AM 77.0 °F - 73.4 °F 89% 30.09 in 10.0 mi Calm Calm - N/A   Clear
9:15 AM 77.0 °F - 75.2 °F 94% 30.10 in 10.0 mi SSE 3.5 mph - N/A   Scattered Clouds
9:35 AM 77.0 °F - 73.4 °F 89% 30.10 in 10.0 mi SSE 3.5 mph - N/A   Mostly Cloudy
9:53 AM 82.0 °F 89.4 °F 75.9 °F 82% 30.09 in - SSE 3.5 mph - N/A   Unknown
9:55 AM 78.8 °F - 75.2 °F 89% 30.10 in 10.0 mi Calm Calm - N/A   Scattered Clouds
10:15 AM 80.6 °F 87.1 °F 77.0 °F 89% 30.10 in 10.0 mi Calm Calm - N/A   Clear
10:35 AM 80.6 °F 87.1 °F 77.0 °F 89% 30.10 in 10.0 mi South 6.9 mph - N/A   Mostly Cloudy
10:53 AM 84.0 °F 91.9 °F 75.0 °F 74% 30.09 in - SW 6.9 mph - 0.01 in   Unknown
10:55 AM 82.4 °F 89.5 °F 75.2 °F 79% 30.11 in 10.0 mi SW 6.9 mph - N/A   Mostly Cloudy
11:15 AM 82.4 °F 88.2 °F 73.4 °F 74% 30.11 in 10.0 mi SW 9.2 mph - N/A   Scattered Clouds
11:35 AM 84.2 °F 90.9 °F 73.4 °F 70% 30.11 in 10.0 mi South 9.2 mph 18.4 mph N/A   Scattered Clouds
11:53 AM 86.0 °F 95.1 °F 75.0 °F 70% 30.10 in - South 10.4 mph 17.3 mph N/A   Unknown
11:55 AM 84.2 °F 90.9 °F 73.4 °F 70% 30.12 in 10.0 mi South 12.7 mph 19.6 mph N/A   Scattered Clouds
12:15 PM 78.8 °F - 71.6 °F 78% 30.11 in 10.0 mi SSE 5.8 mph - N/A   Mostly Cloudy
12:35 PM 82.4 °F 88.2 °F 73.4 °F 74% 30.10 in 10.0 mi South 8.1 mph - N/A   Scattered Clouds
12:53 PM 82.9 °F 90.8 °F 75.9 °F 79% 30.09 in - SSW 8.1 mph - N/A   Unknown
12:55 PM 80.6 °F 85.4 °F 73.4 °F 79% 30.10 in 10.0 mi SW 8.1 mph - N/A Rain Light Rain
1:15 PM 82.4 °F 89.5 °F 75.2 °F 79% 30.09 in 10.0 mi SW 8.1 mph - N/A   Mostly Cloudy
1:53 PM 87.1 °F 95.4 °F 73.9 °F 65% 30.06 in - SW 15.0 mph 21.9 mph N/A   Unknown
2:15 PM 86.0 °F 93.4 °F 73.4 °F 66% 30.07 in 10.0 mi SW 12.7 mph 18.4 mph N/A   Scattered Clouds
2:35 PM 86.0 °F 93.4 °F 73.4 °F 66% 30.06 in 10.0 mi SW 12.7 mph 18.4 mph N/A   Scattered Clouds
2:53 PM 88.0 °F 96.5 °F 73.9 °F 63% 30.04 in - SW 15.0 mph - N/A   Unknown
2:55 PM 86.0 °F 93.4 °F 73.4 °F 66% 30.06 in 10.0 mi WSW 12.7 mph 20.7 mph N/A   Mostly Cloudy
3:15 PM 86.0 °F 93.4 °F 73.4 °F 66% 30.06 in 10.0 mi WSW 15.0 mph - N/A Thunderstorm Scattered Clouds
3:35 PM 86.0 °F 91.8 °F 71.6 °F 62% 30.06 in 10.0 mi SW 12.7 mph - N/A   Scattered Clouds
3:53 PM 88.0 °F 96.5 °F 73.9 °F 63% 30.03 in - SW 11.5 mph - N/A   Unknown
3:55 PM 86.0 °F 91.8 °F 71.6 °F 62% 30.04 in 10.0 mi SW 13.8 mph 18.4 mph N/A   Scattered Clouds
4:15 PM 86.0 °F 91.8 °F 71.6 °F 62% 30.04 in 10.0 mi SW 15.0 mph - N/A   Scattered Clouds
4:35 PM 86.0 °F 91.8 °F 71.6 °F 62% 30.05 in 10.0 mi WSW 12.7 mph 19.6 mph N/A   Scattered Clouds
4:53 PM 87.1 °F 93.6 °F 72.0 °F 61% 30.03 in - SW 16.1 mph 20.7 mph N/A   Unknown
4:55 PM 86.0 °F 91.8 °F 71.6 °F 62% 30.05 in 10.0 mi WSW 13.8 mph 19.6 mph N/A   Scattered Clouds
5:15 PM 86.0 °F 91.8 °F 71.6 °F 62% 30.04 in 10.0 mi SW 11.5 mph 16.1 mph N/A   Clear
5:35 PM 86.0 °F 91.8 °F 71.6 °F 62% 30.04 in 10.0 mi SW 11.5 mph - N/A   Clear
5:53 PM 87.1 °F 93.6 °F 72.0 °F 61% 30.03 in - SW 13.8 mph - N/A   Unknown
5:55 PM 86.0 °F 90.4 °F 69.8 °F 58% 30.04 in 10.0 mi WSW 11.5 mph 18.4 mph N/A   Clear
6:15 PM 84.2 °F 89.6 °F 71.6 °F 66% 30.05 in 10.0 mi SW 8.1 mph - N/A   Clear
6:35 PM 84.2 °F 89.6 °F 71.6 °F 66% 30.05 in 10.0 mi WSW 9.2 mph - N/A   Clear
6:53 PM 84.9 °F 90.7 °F 72.0 °F 65% 30.03 in - SW 12.7 mph - N/A   Unknown
6:55 PM 82.4 °F 87.2 °F 71.6 °F 70% 30.05 in 10.0 mi WSW 11.5 mph - N/A   Clear
7:15 PM 82.4 °F 87.2 °F 71.6 °F 70% 30.05 in 10.0 mi SW 9.2 mph - N/A   Clear
7:35 PM 80.6 °F 84.6 °F 71.6 °F 74% 30.05 in 10.0 mi SW 8.1 mph - N/A   Clear
7:53 PM 82.0 °F 87.9 °F 73.9 °F 76% 30.04 in - SW 5.8 mph - N/A   Unknown
7:55 PM 80.6 °F 85.4 °F 73.4 °F 79% 30.05 in 10.0 mi WSW 6.9 mph - N/A   Clear
8:15 PM 80.6 °F 85.4 °F 73.4 °F 79% 30.05 in 10.0 mi SW 6.9 mph - N/A   Clear
8:35 PM 78.8 °F - 73.4 °F 83% 30.06 in 10.0 mi SW 5.8 mph - N/A   Clear
8:53 PM 80.1 °F 84.2 °F 73.0 °F 79% 30.05 in - SSW 5.8 mph - N/A   Unknown
8:55 PM 78.8 °F - 73.4 °F 83% 30.07 in 10.0 mi SW 5.8 mph - N/A   Clear
9:15 PM 78.8 °F - 73.4 °F 83% 30.07 in 10.0 mi SSW 5.8 mph - N/A   Clear
9:35 PM 78.8 °F - 73.4 °F 83% 30.08 in 10.0 mi SW 5.8 mph - N/A   Clear
9:53 PM 80.1 °F 84.5 °F 73.9 °F 81% 30.06 in - SW 5.8 mph - N/A   Unknown
9:55 PM 78.8 °F - 73.4 °F 83% 30.08 in 10.0 mi SW 5.8 mph - N/A   Clear
10:15 PM 78.8 °F - 73.4 °F 83% 30.08 in 10.0 mi SW 5.8 mph - N/A   Clear
10:35 PM 77.0 °F - 73.4 °F 89% 30.09 in 10.0 mi SW 4.6 mph - N/A   Clear
10:53 PM 79.0 °F - 73.9 °F 84% 30.08 in - SSW 5.8 mph - N/A   Unknown
10:55 PM 77.0 °F - 73.4 °F 89% 30.09 in 10.0 mi SW 4.6 mph - N/A   Clear
11:15 PM 77.0 °F - 73.4 °F 89% 30.10 in 10.0 mi SW 3.5 mph - N/A   Clear
11:35 PM 77.0 °F - 73.4 °F 89% 30.10 in 10.0 mi SSW 3.5 mph - N/A   Clear
11:53 PM 79.0 °F - 73.9 °F 84% 30.09 in - SSW 4.6 mph - N/A   Unknown
11:55 PM 77.0 °F - 73.4 °F 89% 30.10 in 10.0 mi SSW 3.5 mph - N/A   Clear